Вернуться в каталог

STARLINK-35217

АктивенСвязьVLEO
NORAD 65627·PAYLOAD·🇺🇸 United States

Запущен Sep 18, 2025 с Cape Canaveral Space Force Station

Loading…

Ближайшие Пролёты (ближайшие 24 часа)

TLE

СвежийSource: CelesTrak SupGP

Эпоха: Sep 15, 2026, 03:23 UTC

1 65627C 25210F   26258.14145833  .00052874  00000+0  15625-2 0  2582
2 65627  53.1578 146.5115 0001182  81.1209 338.7684 15.34357369    19

Отслеживайте STARLINK-35217 в реальном времени с AllMySat

Download on the App Store